Change the Weather History Date:

Saturday, March 22, 2014

  Actual Average Record
Temperature  
Mean Temperature 32 °F -  
Max Temperature 39 °F 42 °F 79 °F (2012)
Min Temperature 24 °F 27 °F 8 °F (1983)
Degree Days  
Heating Degree Days 32    
Moisture  
Dew Point 24 °F    
Average Humidity 66    
Maximum Humidity 82    
Minimum Humidity 49    
Precipitation  
Precipitation 0.00 in - - ()
Sea Level Pressure  
Sea Level Pressure 30.11 in    
Wind  
Wind Speed 14 mph (NW)    
Max Wind Speed 22 mph    
Max Gust Speed 31 mph    
Visibility 10 miles    
Events      
Averages and records for this station are not official NWS values.
T = Trace of Precipitation, MM = Missing Value Source: NWS Daily Summary

Daily Weather History Graph

Daily Weather History Graph

Search for Another Location

Airport or City:

Trip Planner

Search our weather history database for the weather conditions in past years. The results will help you decide how hot, cold, wet, or windy it might be!

Date:

Astronomy

Mar. 22, 2014 Rise Set
Actual Time 6:51 AM CDT 7:06 PM CDT
Civil Twilight 6:23 AM CDT 7:34 PM CDT
Nautical Twilight 5:50 AM CDT 8:07 PM CDT
Astronomical Twilight 5:16 AM CDT 8:41 PM CDT
Moon 12:31 AM CDT (3/22) 10:28 AM CDT (3/22)
Length of Visible Light 13h 11m
Length of Day
12h 14m
Waning Gibbous, 65% of the Moon is Illuminated
Mar 22
Waning Gibbous
Mar 23
Last Quarter
Mar 30
New
Apr 7
First Quarter
Apr 15
Full

Hourly Weather History & Observations

Time (CDT) Temp. Windchill Dew Point Humidity Pressure Visibility Wind Dir Wind Speed Gust Speed Precip Events Conditions
12:23 AM 39.0 °F 29.9 °F 32.0 °F 76% 29.81 in 10.0 mi NW 17.3 mph 31.1 mph N/A   Overcast
12:53 AM 37.9 °F 27.9 °F 30.0 °F 73% 29.85 in 10.0 mi NW 19.6 mph 29.9 mph N/A   Mostly Cloudy
1:05 AM 37.9 °F 27.3 °F 28.9 °F 70% 29.84 in 10.0 mi WNW 21.9 mph 29.9 mph N/A   Mostly Cloudy
1:53 AM 37.9 °F 28.9 °F 28.9 °F 70% 29.89 in 10.0 mi NW 16.1 mph 21.9 mph N/A   Overcast
2:01 AM 37.9 °F 28.2 °F 28.9 °F 70% 29.87 in 10.0 mi NW 18.4 mph 24.2 mph N/A   Overcast
2:53 AM 37.0 °F 28.5 °F 30.0 °F 76% 29.92 in 10.0 mi NW 13.8 mph 23.0 mph N/A   Overcast
3:53 AM 37.0 °F 28.5 °F 28.9 °F 73% 29.95 in 10.0 mi NW 13.8 mph 21.9 mph N/A   Scattered Clouds
4:21 AM 37.0 °F 29.8 °F 30.0 °F 76% 29.95 in 10.0 mi NW 10.4 mph - N/A   Mostly Cloudy
4:53 AM 36.0 °F 28.5 °F 28.9 °F 76% 29.99 in 10.0 mi NW 10.4 mph 20.7 mph N/A   Overcast
5:43 AM 36.0 °F 27.5 °F 28.0 °F 73% 30.00 in 10.0 mi NNW 12.7 mph - N/A   Overcast
5:53 AM 35.1 °F 27.4 °F 28.0 °F 76% 30.03 in 10.0 mi NW 10.4 mph - N/A   Mostly Cloudy
6:01 AM 35.1 °F 29.3 °F 27.0 °F 72% 30.01 in 10.0 mi NW 6.9 mph - N/A   Scattered Clouds
6:53 AM 32.0 °F 25.6 °F 27.0 °F 82% 30.06 in 10.0 mi WNW 6.9 mph - N/A   Clear
7:53 AM 34.0 °F 27.2 °F 28.0 °F 79% 30.09 in 10.0 mi WNW 8.1 mph - N/A   Clear
8:53 AM 37.0 °F 28.9 °F 28.0 °F 70% 30.12 in 10.0 mi NW 12.7 mph - N/A   Clear
9:53 AM 37.0 °F 27.4 °F 28.0 °F 70% 30.15 in 10.0 mi WNW 17.3 mph 23.0 mph N/A   Overcast
10:53 AM 37.0 °F 27.7 °F 28.0 °F 70% 30.17 in 10.0 mi NW 16.1 mph 19.6 mph N/A   Overcast
11:53 AM 39.0 °F 31.4 °F 28.0 °F 65% 30.19 in 10.0 mi NW 12.7 mph - N/A   Overcast
12:05 PM 37.9 °F 29.6 °F 27.0 °F 65% 30.16 in 10.0 mi WNW 13.8 mph - N/A   Overcast
12:34 PM 37.9 °F 30.0 °F 26.1 °F 62% 30.17 in 10.0 mi NW 12.7 mph - N/A   Overcast
12:53 PM 37.9 °F 28.5 °F 27.0 °F 65% 30.19 in 10.0 mi WNW 17.3 mph 24.2 mph N/A   Overcast
1:53 PM 37.9 °F 30.9 °F 25.0 °F 60% 30.19 in 10.0 mi NNW 10.4 mph - N/A   Overcast
2:53 PM 35.1 °F 27.4 °F 25.0 °F 67% 30.21 in 10.0 mi NW 10.4 mph 18.4 mph N/A   Overcast
3:20 PM 35.1 °F 26.9 °F 24.1 °F 64% 30.19 in 10.0 mi WNW 11.5 mph 19.6 mph N/A   Overcast
3:53 PM 34.0 °F 24.6 °F 21.0 °F 59% 30.22 in 10.0 mi NW 13.8 mph - N/A   Overcast
4:53 PM 36.0 °F 28.5 °F 19.0 °F 50% 30.22 in 10.0 mi WNW 10.4 mph - N/A   Mostly Cloudy
5:53 PM 35.1 °F 27.4 °F 18.0 °F 50% 30.23 in 10.0 mi NW 10.4 mph - N/A   Clear
6:53 PM 34.0 °F 27.2 °F 17.1 °F 50% 30.26 in 10.0 mi NW 8.1 mph - N/A   Scattered Clouds
7:53 PM 32.0 °F 23.0 °F 15.1 °F 50% 30.28 in 10.0 mi NNW 11.5 mph - N/A   Clear
8:53 PM 30.0 °F 21.1 °F 14.0 °F 51% 30.29 in 10.0 mi North 10.4 mph - N/A   Clear
9:53 PM 28.0 °F 17.5 °F 10.9 °F 49% 30.31 in 10.0 mi NNW 12.7 mph - N/A   Clear
10:53 PM 26.1 °F 14.5 °F 10.0 °F 51% 30.33 in 10.0 mi NNW 13.8 mph 21.9 mph N/A   Clear
11:53 PM 24.1 °F 11.5 °F 9.0 °F 53% 30.35 in 10.0 mi NNW 15.0 mph - N/A   Clear